Time,TemperatureF,DewpointF,PressureIn,WindDirection,WindDirectionDegrees,WindSpeedMPH,WindSpeedGustMPH,Humidity,HourlyPrecipIn,Conditions,Clouds,dailyrainin,SoftwareType,DateUTC
2013-11-12 00:02:00,45.9,46.0,30.04,SSW,202,0.0,0.0,99,0.00,,,0.00,Rainwise IP-100,2013-11-12 08:02:00,
2013-11-12 00:07:00,46.0,46.0,30.04,SSW,202,0.0,0.0,99,0.00,,,0.00,Rainwise IP-100,2013-11-12 08:07:00,
2013-11-12 00:12:00,46.1,46.0,30.04,SSW,202,0.0,0.0,100,0.00,,,0.00,Rainwise IP-100,2013-11-12 08:12:00,
2013-11-12 00:17:00,46.2,46.0,30.04,SSW,202,0.0,0.0,99,0.00,,,0.00,Rainwise IP-100,2013-11-12 08:17:00,
2013-11-12 00:22:00,46.2,46.0,30.04,SSW,202,0.0,0.0,99,0.00,,,0.00,Rainwise IP-100,2013-11-12 08:22:00,
2013-11-12 00:27:00,46.1,46.0,30.04,SSW,202,0.0,1.0,99,0.00,,,0.00,Rainwise IP-100,2013-11-12 08:27:00,
2013-11-12 00:32:00,46.0,46.0,30.05,SSW,202,0.0,0.0,99,0.00,,,0.00,Rainwise IP-100,2013-11-12 08:32:00,
2013-11-12 00:37:00,46.0,46.0,30.04,SSW,202,0.0,0.0,99,0.00,,,0.00,Rainwise IP-100,2013-11-12 08:37:00,
2013-11-12 00:42:00,46.0,46.0,30.04,SSW,202,0.0,0.0,99,0.00,,,0.00,Rainwise IP-100,2013-11-12 08:42:00,
2013-11-12 00:47:00,46.0,46.0,30.04,SSW,202,0.0,0.0,99,0.00,,,0.00,Rainwise IP-100,2013-11-12 08:47:00,
2013-11-12 00:52:00,46.0,46.0,30.04,SSW,202,0.0,0.0,99,0.00,,,0.00,Rainwise IP-100,2013-11-12 08:52:00,
2013-11-12 00:57:00,46.1,46.0,30.05,SSW,202,0.0,0.0,99,0.00,,,0.00,Rainwise IP-100,2013-11-12 08:57:00,
2013-11-12 01:02:00,46.2,46.0,30.05,SSW,202,0.0,0.0,99,0.00,,,0.00,Rainwise IP-100,2013-11-12 09:02:00,
2013-11-12 01:07:00,46.2,46.0,30.05,SSW,202,0.0,0.0,99,0.00,,,0.00,Rainwise IP-100,2013-11-12 09:07:00,
2013-11-12 01:12:00,46.3,46.0,30.05,SSW,202,0.0,0.0,99,0.00,,,0.00,Rainwise IP-100,2013-11-12 09:12:00,
2013-11-12 01:17:00,46.4,46.0,30.06,SSW,202,0.0,0.0,99,0.00,,,0.00,Rainwise IP-100,2013-11-12 09:17:00,
2013-11-12 01:22:00,46.4,46.0,30.05,SSW,202,0.0,0.0,99,0.00,,,0.00,Rainwise IP-100,2013-11-12 09:22:00,
2013-11-12 01:27:00,46.4,46.0,30.04,SSW,202,0.0,0.0,99,0.00,,,0.00,Rainwise IP-100,2013-11-12 09:27:00,
2013-11-12 01:32:00,46.5,47.0,30.05,SSW,202,0.0,0.0,99,0.00,,,0.00,Rainwise IP-100,2013-11-12 09:32:00,
2013-11-12 01:37:00,46.5,47.0,30.04,SSW,202,0.0,0.0,99,0.00,,,0.00,Rainwise IP-100,2013-11-12 09:37:00,
2013-11-12 01:42:00,46.6,47.0,30.05,SSW,202,0.0,0.0,99,0.00,,,0.00,Rainwise IP-100,2013-11-12 09:42:00,
2013-11-12 01:47:00,46.7,47.0,30.05,SSW,202,0.0,0.0,99,0.00,,,0.00,Rainwise IP-100,2013-11-12 09:47:00,
2013-11-12 01:52:00,46.6,46.0,30.05,SSW,202,0.0,0.0,98,0.00,,,0.00,Rainwise IP-100,2013-11-12 09:52:00,
2013-11-12 01:57:00,46.6,46.0,30.05,SSW,202,0.0,0.0,98,0.00,,,0.00,Rainwise IP-100,2013-11-12 09:57:00,
2013-11-12 02:02:00,46.6,46.0,30.05,SSW,202,0.0,0.0,98,0.00,,,0.00,Rainwise IP-100,2013-11-12 10:02:00,
2013-11-12 02:07:00,46.6,46.0,30.05,SSW,202,0.0,0.0,98,0.00,,,0.00,Rainwise IP-100,2013-11-12 10:07:00,
2013-11-12 02:12:00,46.7,46.0,30.06,SSW,202,0.0,0.0,98,0.00,,,0.00,Rainwise IP-100,2013-11-12 10:12:00,
2013-11-12 02:17:00,47.0,46.0,30.05,SSW,202,0.0,0.0,97,0.00,,,0.00,Rainwise IP-100,2013-11-12 10:17:00,
2013-11-12 02:22:00,47.3,46.0,30.05,SSW,202,0.0,0.0,96,0.00,,,0.00,Rainwise IP-100,2013-11-12 10:22:00,
2013-11-12 02:27:00,47.6,46.0,30.05,SSW,202,0.0,0.0,94,0.00,,,0.00,Rainwise IP-100,2013-11-12 10:27:00,
2013-11-12 02:32:00,48.2,47.0,30.06,SSW,202,0.0,1.0,93,0.00,,,0.00,Rainwise IP-100,2013-11-12 10:32:00,
2013-11-12 02:37:00,48.9,47.0,30.06,SSW,202,0.0,3.0,91,0.00,,,0.00,Rainwise IP-100,2013-11-12 10:37:00,
2013-11-12 02:42:00,49.1,47.0,30.07,SSW,202,0.0,0.0,91,0.00,,,0.00,Rainwise IP-100,2013-11-12 10:42:00,
2013-11-12 02:47:00,49.2,47.0,30.08,SSW,202,0.0,0.0,91,0.00,,,0.00,Rainwise IP-100,2013-11-12 10:47:00,
2013-11-12 02:52:00,49.2,47.0,30.09,South,180,0.0,4.0,92,0.00,,,0.00,Rainwise IP-100,2013-11-12 10:52:00,
2013-11-12 02:57:00,49.4,47.0,30.09,SSE,157,0.0,4.0,94,0.00,,,0.00,Rainwise IP-100,2013-11-12 10:57:00,
2013-11-12 03:02:00,49.7,48.0,30.08,SW,225,0.0,4.0,94,0.00,,,0.00,Rainwise IP-100,2013-11-12 11:02:00,
2013-11-12 03:07:00,49.8,47.0,30.08,South,180,1.4,2.0,93,0.00,,,0.00,Rainwise IP-100,2013-11-12 11:07:00,
2013-11-12 03:12:00,49.9,47.0,30.07,South,180,0.0,2.0,93,0.00,,,0.00,Rainwise IP-100,2013-11-12 11:12:00,
2013-11-12 03:17:00,50.0,47.0,30.08,South,180,0.0,0.0,92,0.00,,,0.00,Rainwise IP-100,2013-11-12 11:17:00,
2013-11-12 03:22:00,49.9,47.0,30.08,South,180,0.0,0.0,92,0.00,,,0.00,Rainwise IP-100,2013-11-12 11:22:00,
2013-11-12 03:27:00,49.8,47.0,30.08,South,180,0.0,0.0,91,0.00,,,0.00,Rainwise IP-100,2013-11-12 11:27:00,
2013-11-12 03:32:00,49.7,47.0,30.08,South,180,0.0,0.0,91,0.00,,,0.00,Rainwise IP-100,2013-11-12 11:32:00,
2013-11-12 03:37:00,49.6,47.0,30.08,South,180,0.0,0.0,92,0.00,,,0.00,Rainwise IP-100,2013-11-12 11:37:00,
2013-11-12 03:42:00,49.5,47.0,30.09,South,180,0.0,0.0,92,0.00,,,0.00,Rainwise IP-100,2013-11-12 11:42:00,
2013-11-12 03:47:00,49.4,47.0,30.08,South,180,0.0,0.0,91,0.00,,,0.00,Rainwise IP-100,2013-11-12 11:47:00,
2013-11-12 03:52:00,49.4,47.0,30.09,South,180,0.0,1.0,91,0.00,,,0.00,Rainwise IP-100,2013-11-12 11:52:00,
2013-11-12 03:57:00,49.7,47.0,30.08,SW,225,1.4,2.0,89,0.00,,,0.00,Rainwise IP-100,2013-11-12 11:57:00,
2013-11-12 04:02:00,50.2,46.0,30.08,SW,225,0.0,1.0,86,0.00,,,0.00,Rainwise IP-100,2013-11-12 12:02:00,
2013-11-12 04:07:00,51.0,47.0,30.09,SW,225,0.0,2.0,84,0.00,,,0.00,Rainwise IP-100,2013-11-12 12:07:00,
2013-11-12 04:12:00,51.7,47.0,30.10,SSW,202,1.9,3.0,82,0.00,,,0.00,Rainwise IP-100,2013-11-12 12:12:00,
2013-11-12 04:17:00,52.5,47.0,30.10,SSW,202,1.2,4.0,80,0.00,,,0.00,Rainwise IP-100,2013-11-12 12:17:00,
2013-11-12 04:22:00,53.1,47.0,30.11,SW,225,0.0,6.0,79,0.00,,,0.00,Rainwise IP-100,2013-11-12 12:22:00,
2013-11-12 04:27:00,53.3,46.0,30.11,South,180,2.3,6.0,78,0.00,,,0.00,Rainwise IP-100,2013-11-12 12:27:00,
2013-11-12 04:32:00,53.4,47.0,30.11,South,180,2.3,5.0,78,0.00,,,0.00,Rainwise IP-100,2013-11-12 12:32:00,
2013-11-12 04:37:00,53.5,47.0,30.11,SW,225,1.9,4.0,78,0.00,,,0.00,Rainwise IP-100,2013-11-12 12:37:00,
2013-11-12 04:42:00,53.5,47.0,30.11,SSW,202,3.3,6.0,78,0.00,,,0.00,Rainwise IP-100,2013-11-12 12:42:00,
2013-11-12 04:47:00,53.3,47.0,30.12,SSW,202,2.8,6.0,79,0.00,,,0.00,Rainwise IP-100,2013-11-12 12:47:00,
2013-11-12 04:52:00,53.1,47.0,30.12,WSW,247,2.1,4.0,80,0.00,,,0.00,Rainwise IP-100,2013-11-12 12:52:00,
2013-11-12 04:57:00,52.8,47.0,30.11,SW,225,1.9,4.0,82,0.00,,,0.00,Rainwise IP-100,2013-11-12 12:57:00,
2013-11-12 05:02:00,52.4,47.0,30.12,SSW,202,1.6,4.0,83,0.00,,,0.00,Rainwise IP-100,2013-11-12 13:02:00,
2013-11-12 05:07:00,52.0,47.0,30.12,SW,225,0.0,2.0,85,0.00,,,0.00,Rainwise IP-100,2013-11-12 13:07:00,
2013-11-12 05:12:00,51.6,48.0,30.12,SSE,157,0.0,3.0,87,0.00,,,0.00,Rainwise IP-100,2013-11-12 13:12:00,
2013-11-12 05:17:00,51.4,47.0,30.12,SW,225,1.9,2.0,88,0.00,,,0.00,Rainwise IP-100,2013-11-12 13:17:00,
2013-11-12 05:22:00,51.2,47.0,30.13,SSW,202,1.6,3.0,88,0.00,,,0.00,Rainwise IP-100,2013-11-12 13:22:00,
2013-11-12 05:27:00,51.1,48.0,30.13,SW,225,0.0,2.0,89,0.00,,,0.00,Rainwise IP-100,2013-11-12 13:27:00,
2013-11-12 05:32:00,51.0,48.0,30.13,SSW,202,2.1,2.1,90,0.00,,,0.00,Rainwise IP-100,2013-11-12 13:32:00,
2013-11-12 05:37:00,50.8,48.0,30.12,SW,225,0.0,4.0,91,0.00,,,0.00,Rainwise IP-100,2013-11-12 13:37:00,
2013-11-12 05:42:00,50.7,48.0,30.13,SSW,202,0.0,3.0,91,0.00,,,0.00,Rainwise IP-100,2013-11-12 13:42:00,
2013-11-12 05:47:00,50.5,48.0,30.12,SW,225,0.0,1.0,92,0.00,,,0.00,Rainwise IP-100,2013-11-12 13:47:00,
2013-11-12 05:52:00,50.2,47.0,30.13,SW,225,0.0,1.0,93,0.00,,,0.00,Rainwise IP-100,2013-11-12 13:52:00,
2013-11-12 05:57:00,50.0,48.0,30.14,SSW,202,0.0,2.0,94,0.00,,,0.00,Rainwise IP-100,2013-11-12 13:57:00,
2013-11-12 06:02:00,50.0,48.0,30.14,SSW,202,0.0,1.0,94,0.00,,,0.00,Rainwise IP-100,2013-11-12 14:02:00,
2013-11-12 06:07:00,49.9,48.0,30.14,SW,225,0.0,2.0,95,0.00,,,0.00,Rainwise IP-100,2013-11-12 14:07:00,
2013-11-12 06:12:00,49.7,48.0,30.14,SSW,202,0.0,2.0,95,0.00,,,0.00,Rainwise IP-100,2013-11-12 14:12:00,
2013-11-12 06:17:00,49.6,49.0,30.14,SW,225,0.0,2.0,96,0.00,,,0.00,Rainwise IP-100,2013-11-12 14:17:00,
2013-11-12 06:22:00,49.5,49.0,30.14,SSW,202,0.0,2.0,96,0.00,,,0.00,Rainwise IP-100,2013-11-12 14:22:00,
2013-11-12 06:27:00,49.4,48.0,30.14,SSW,202,0.0,0.0,96,0.00,,,0.00,Rainwise IP-100,2013-11-12 14:27:00,
2013-11-12 06:32:00,49.3,48.0,30.14,SSW,202,0.0,0.0,97,0.00,,,0.00,Rainwise IP-100,2013-11-12 14:32:00,
2013-11-12 06:37:00,49.3,48.0,30.14,SSW,202,0.0,0.0,97,0.00,,,0.00,Rainwise IP-100,2013-11-12 14:37:00,
2013-11-12 06:42:00,49.2,48.0,30.14,SSW,202,0.0,1.0,97,0.00,,,0.00,Rainwise IP-100,2013-11-12 14:42:00,
2013-11-12 06:47:00,49.2,48.0,30.14,SSW,202,0.0,0.0,98,0.00,,,0.00,Rainwise IP-100,2013-11-12 14:47:00,
2013-11-12 06:52:00,49.1,48.0,30.14,SSW,202,0.0,0.0,98,0.00,,,0.00,Rainwise IP-100,2013-11-12 14:52:00,
2013-11-12 06:57:00,49.1,48.0,30.15,SSW,202,0.0,1.0,98,0.00,,,0.00,Rainwise IP-100,2013-11-12 14:57:00,
2013-11-12 07:02:00,49.1,48.0,30.14,SSW,202,1.4,0.0,98,0.00,,,0.00,Rainwise IP-100,2013-11-12 15:02:00,
2013-11-12 07:07:00,49.1,48.0,30.15,SSW,202,0.0,1.0,98,0.00,,,0.00,Rainwise IP-100,2013-11-12 15:07:00,
2013-11-12 07:12:00,49.1,48.0,30.15,SSW,202,0.0,1.0,98,0.00,,,0.00,Rainwise IP-100,2013-11-12 15:12:00,
2013-11-12 07:17:00,49.0,48.0,30.16,SSW,202,0.0,0.0,98,0.00,,,0.00,Rainwise IP-100,2013-11-12 15:17:00,
2013-11-12 07:22:00,49.0,49.0,30.15,SSW,202,0.0,2.0,99,0.00,,,0.00,Rainwise IP-100,2013-11-12 15:22:00,
2013-11-12 07:27:00,49.1,49.0,30.16,SSE,157,1.2,1.2,99,0.00,,,0.00,Rainwise IP-100,2013-11-12 15:27:00,
2013-11-12 07:32:00,49.1,49.0,30.16,South,180,0.0,1.0,99,0.00,,,0.00,Rainwise IP-100,2013-11-12 15:32:00,
2013-11-12 07:37:00,49.1,49.0,30.16,South,180,0.0,0.0,99,0.00,,,0.00,Rainwise IP-100,2013-11-12 15:37:00,
2013-11-12 07:42:00,49.1,49.0,30.16,South,180,0.0,1.0,99,0.00,,,0.00,Rainwise IP-100,2013-11-12 15:42:00,
2013-11-12 07:47:00,49.1,49.0,30.16,SW,225,0.0,1.0,99,0.00,,,0.00,Rainwise IP-100,2013-11-12 15:47:00,
2013-11-12 07:52:00,49.1,49.0,30.18,SW,225,1.6,3.0,99,0.00,,,0.00,Rainwise IP-100,2013-11-12 15:52:00,
2013-11-12 07:57:00,49.1,49.0,30.18,SSW,202,0.0,2.0,99,0.00,,,0.00,Rainwise IP-100,2013-11-12 15:57:00,
2013-11-12 08:02:00,49.2,49.0,30.18,South,180,0.0,3.0,99,0.00,,,0.00,Rainwise IP-100,2013-11-12 16:02:00,
2013-11-12 08:07:00,49.2,49.0,30.18,SSW,202,0.0,2.0,99,0.00,,,0.00,Rainwise IP-100,2013-11-12 16:07:00,
2013-11-12 08:12:00,49.2,49.0,30.19,SSW,202,0.0,2.0,99,0.00,,,0.00,Rainwise IP-100,2013-11-12 16:12:00,
2013-11-12 08:17:00,49.2,49.0,30.19,SSW,202,0.0,0.0,99,0.00,,,0.00,Rainwise IP-100,2013-11-12 16:17:00,
2013-11-12 08:22:00,49.2,49.0,30.19,SSW,202,0.0,1.0,99,0.00,,,0.00,Rainwise IP-100,2013-11-12 16:22:00,
2013-11-12 08:27:00,49.3,49.0,30.20,SSW,202,1.6,1.6,99,0.00,,,0.00,Rainwise IP-100,2013-11-12 16:27:00,
2013-11-12 08:32:00,49.3,49.0,30.20,SSW,202,0.0,2.0,99,0.00,,,0.00,Rainwise IP-100,2013-11-12 16:32:00,
2013-11-12 08:37:00,49.4,49.0,30.21,SSW,202,0.0,1.0,99,0.00,,,0.00,Rainwise IP-100,2013-11-12 16:37:00,
2013-11-12 08:42:00,49.4,49.0,30.21,SSW,202,0.0,1.0,99,0.00,,,0.00,Rainwise IP-100,2013-11-12 16:42:00,
2013-11-12 08:47:00,49.4,49.0,30.21,SSW,202,0.0,1.0,99,0.00,,,0.00,Rainwise IP-100,2013-11-12 16:47:00,
2013-11-12 08:52:00,49.4,49.0,30.21,SSE,157,0.0,2.0,100,0.00,,,0.00,Rainwise IP-100,2013-11-12 16:52:00,
2013-11-12 08:57:00,49.4,49.0,30.22,SSE,157,0.0,0.0,100,0.00,,,0.00,Rainwise IP-100,2013-11-12 16:57:00,
2013-11-12 09:02:00,49.4,49.0,30.22,SSE,157,0.0,0.0,100,0.00,,,0.00,Rainwise IP-100,2013-11-12 17:02:00,
2013-11-12 09:07:00,49.4,49.0,30.22,SSE,157,0.0,0.0,100,0.00,,,0.00,Rainwise IP-100,2013-11-12 17:07:00,
2013-11-12 09:12:00,49.3,49.0,30.22,SSE,157,0.0,0.0,100,0.00,,,0.00,Rainwise IP-100,2013-11-12 17:12:00,
2013-11-12 09:17:00,49.3,49.0,30.22,SSE,157,0.0,0.0,100,0.00,,,0.00,Rainwise IP-100,2013-11-12 17:17:00,
2013-11-12 09:22:00,49.4,49.0,30.22,SSE,157,0.0,0.0,100,0.00,,,0.00,Rainwise IP-100,2013-11-12 17:22:00,
2013-11-12 09:27:00,49.5,50.0,30.22,SSE,157,0.0,0.0,100,0.00,,,0.00,Rainwise IP-100,2013-11-12 17:27:00,
2013-11-12 09:32:00,49.5,50.0,30.23,SSE,157,0.0,0.0,100,0.00,,,0.00,Rainwise IP-100,2013-11-12 17:32:00,
2013-11-12 09:37:00,49.6,50.0,30.23,SSE,157,0.0,0.0,100,0.00,,,0.00,Rainwise IP-100,2013-11-12 17:37:00,
2013-11-12 09:42:00,49.6,50.0,30.23,SSE,157,0.0,0.0,100,0.00,,,0.00,Rainwise IP-100,2013-11-12 17:42:00,
2013-11-12 09:47:00,49.6,50.0,30.24,SSE,157,0.0,0.0,100,0.00,,,0.00,Rainwise IP-100,2013-11-12 17:47:00,
2013-11-12 09:52:00,49.7,50.0,30.24,SSE,157,0.0,0.0,100,0.00,,,0.00,Rainwise IP-100,2013-11-12 17:52:00,
2013-11-12 09:57:00,49.9,50.0,30.25,SSE,157,0.0,0.0,100,0.00,,,0.00,Rainwise IP-100,2013-11-12 17:57:00,
2013-11-12 10:02:00,50.0,50.0,30.25,SSE,157,0.0,0.0,100,0.00,,,0.00,Rainwise IP-100,2013-11-12 18:02:00,
2013-11-12 10:07:00,50.0,50.0,30.25,SSE,157,0.0,0.0,100,0.00,,,0.00,Rainwise IP-100,2013-11-12 18:07:00,
2013-11-12 10:12:00,50.0,50.0,30.25,SSE,157,0.0,0.0,100,0.00,,,0.00,Rainwise IP-100,2013-11-12 18:12:00,
2013-11-12 10:17:00,50.0,50.0,30.25,SSE,157,0.0,0.0,100,0.00,,,0.00,Rainwise IP-100,2013-11-12 18:17:00,
2013-11-12 10:22:00,50.0,50.0,30.25,SSE,157,0.0,0.0,100,0.00,,,0.00,Rainwise IP-100,2013-11-12 18:22:00,
2013-11-12 10:27:00,50.1,50.0,30.25,SSE,157,0.0,0.0,100,0.00,,,0.00,Rainwise IP-100,2013-11-12 18:27:00,
2013-11-12 10:32:00,50.1,50.0,30.25,SSE,157,0.0,0.0,100,0.00,,,0.00,Rainwise IP-100,2013-11-12 18:32:00,
2013-11-12 10:37:00,50.2,50.0,30.26,SSE,157,0.0,0.0,100,0.00,,,0.00,Rainwise IP-100,2013-11-12 18:37:00,
2013-11-12 10:42:00,50.2,50.0,30.26,SSE,157,0.0,0.0,100,0.00,,,0.00,Rainwise IP-100,2013-11-12 18:42:00,
2013-11-12 10:47:00,50.3,50.0,30.26,SSE,157,0.0,0.0,100,0.00,,,0.00,Rainwise IP-100,2013-11-12 18:47:00,
2013-11-12 10:52:00,50.4,50.0,30.26,SSE,157,0.0,0.0,100,0.00,,,0.00,Rainwise IP-100,2013-11-12 18:52:00,
2013-11-12 10:57:00,50.6,50.0,30.26,SSE,157,0.0,0.0,100,0.00,,,0.00,Rainwise IP-100,2013-11-12 18:57:00,
2013-11-12 11:02:00,50.7,50.0,30.26,SSE,157,0.0,0.0,100,0.00,,,0.00,Rainwise IP-100,2013-11-12 19:02:00,
2013-11-12 11:07:00,50.8,50.0,30.26,SSE,157,0.0,0.0,100,0.00,,,0.00,Rainwise IP-100,2013-11-12 19:07:00,
2013-11-12 11:12:00,50.9,51.0,30.26,SSE,157,0.0,0.0,100,0.00,,,0.00,Rainwise IP-100,2013-11-12 19:12:00,
2013-11-12 11:17:00,51.1,51.0,30.26,West,270,0.0,1.0,100,0.00,,,0.00,Rainwise IP-100,2013-11-12 19:17:00,
2013-11-12 11:22:00,51.4,51.0,30.26,North,0,0.0,1.0,100,0.00,,,0.00,Rainwise IP-100,2013-11-12 19:22:00,
2013-11-12 11:27:00,51.7,52.0,30.26,North,0,0.0,0.0,100,0.00,,,0.00,Rainwise IP-100,2013-11-12 19:27:00,
2013-11-12 11:32:00,51.9,52.0,30.27,SSW,202,0.0,1.0,100,0.00,,,0.00,Rainwise IP-100,2013-11-12 19:32:00,
2013-11-12 11:37:00,52.4,52.0,30.26,SW,225,0.0,3.0,99,0.00,,,0.00,Rainwise IP-100,2013-11-12 19:37:00,
2013-11-12 11:42:00,52.7,53.0,30.26,SW,225,0.0,1.0,99,0.00,,,0.00,Rainwise IP-100,2013-11-12 19:42:00,
2013-11-12 11:47:00,53.1,52.0,30.26,SSW,202,0.0,2.0,98,0.00,,,0.00,Rainwise IP-100,2013-11-12 19:47:00,
2013-11-12 11:52:00,53.5,53.0,30.26,SW,225,0.0,2.0,97,0.00,,,0.00,Rainwise IP-100,2013-11-12 19:52:00,
2013-11-12 11:57:00,53.9,53.0,30.26,SW,225,1.6,3.0,96,0.00,,,0.00,Rainwise IP-100,2013-11-12 19:57:00,
2013-11-12 12:02:00,54.3,53.0,30.26,SSW,202,1.2,4.0,95,0.00,,,0.00,Rainwise IP-100,2013-11-12 20:02:00,
2013-11-12 12:07:00,54.4,53.0,30.26,SSW,202,4.2,4.2,94,0.00,,,0.00,Rainwise IP-100,2013-11-12 20:07:00,
2013-11-12 12:12:00,54.5,53.0,30.26,SSW,202,1.6,4.0,93,0.00,,,0.00,Rainwise IP-100,2013-11-12 20:12:00,
2013-11-12 12:17:00,54.6,53.0,30.27,SSW,202,1.6,5.0,93,0.00,,,0.00,Rainwise IP-100,2013-11-12 20:17:00,
2013-11-12 12:22:00,54.9,53.0,30.27,SW,225,0.0,5.0,92,0.00,,,0.00,Rainwise IP-100,2013-11-12 20:22:00,
2013-11-12 12:27:00,55.5,53.0,30.27,SSW,202,3.3,4.0,92,0.00,,,0.00,Rainwise IP-100,2013-11-12 20:27:00,
2013-11-12 12:32:00,56.0,53.0,30.27,SSW,202,1.4,5.0,91,0.00,,,0.00,Rainwise IP-100,2013-11-12 20:32:00,
2013-11-12 12:37:00,56.5,53.0,30.27,SSW,202,1.6,4.0,90,0.00,,,0.00,Rainwise IP-100,2013-11-12 20:37:00,
2013-11-12 12:42:00,56.9,54.0,30.27,SW,225,3.0,4.0,89,0.00,,,0.00,Rainwise IP-100,2013-11-12 20:42:00,
2013-11-12 12:47:00,57.3,54.0,30.27,SSW,202,3.7,3.7,89,0.00,,,0.00,Rainwise IP-100,2013-11-12 20:47:00,
2013-11-12 12:52:00,57.5,54.0,30.27,SSW,202,4.4,4.4,88,0.00,,,0.00,Rainwise IP-100,2013-11-12 20:52:00,
2013-11-12 12:57:00,57.4,54.0,30.27,SSW,202,0.0,4.0,87,0.00,,,0.00,Rainwise IP-100,2013-11-12 20:57:00,
2013-11-12 13:02:00,57.3,53.0,30.27,SSW,202,1.9,3.0,88,0.00,,,0.00,Rainwise IP-100,2013-11-12 21:02:00,
2013-11-12 13:07:00,57.2,53.0,30.27,SSW,202,2.1,4.0,88,0.00,,,0.00,Rainwise IP-100,2013-11-12 21:07:00,
2013-11-12 13:12:00,57.1,53.0,30.27,SW,225,0.0,4.0,88,0.00,,,0.00,Rainwise IP-100,2013-11-12 21:12:00,
2013-11-12 13:17:00,57.0,53.0,30.27,SSW,202,4.4,7.0,88,0.00,,,0.01,Rainwise IP-100,2013-11-12 21:17:00,
2013-11-12 13:22:00,56.8,53.0,30.27,SSW,202,1.4,6.0,88,0.06,,,0.01,Rainwise IP-100,2013-11-12 21:22:00,
2013-11-12 13:27:00,56.7,53.0,30.27,SSW,202,1.9,4.0,88,0.06,,,0.01,Rainwise IP-100,2013-11-12 21:27:00,
2013-11-12 13:32:00,56.6,53.0,30.27,SSW,202,2.6,4.0,89,0.00,,,0.01,Rainwise IP-100,2013-11-12 21:32:00,
2013-11-12 13:37:00,56.8,53.0,30.27,South,180,0.0,6.0,89,0.00,,,0.01,Rainwise IP-100,2013-11-12 21:37:00,
2013-11-12 13:42:00,57.2,53.0,30.27,SSW,202,2.1,3.0,88,0.00,,,0.01,Rainwise IP-100,2013-11-12 21:42:00,
2013-11-12 13:47:00,58.0,54.0,30.27,SSE,157,1.4,5.0,87,0.00,,,0.01,Rainwise IP-100,2013-11-12 21:47:00,
2013-11-12 13:52:00,58.5,54.0,30.27,South,180,1.6,6.0,86,0.00,,,0.01,Rainwise IP-100,2013-11-12 21:52:00,
2013-11-12 13:57:00,58.9,54.0,30.27,SSW,202,3.0,4.0,85,0.00,,,0.01,Rainwise IP-100,2013-11-12 21:57:00,
2013-11-12 14:02:00,59.2,54.0,30.27,South,180,2.6,4.0,84,0.00,,,0.01,Rainwise IP-100,2013-11-12 22:02:00,
2013-11-12 14:07:00,59.0,54.0,30.28,South,180,6.5,6.5,84,0.00,,,0.01,Rainwise IP-100,2013-11-12 22:07:00,
2013-11-12 14:12:00,58.4,53.0,30.27,SW,225,1.6,7.0,84,0.00,,,0.01,Rainwise IP-100,2013-11-12 22:12:00,
2013-11-12 14:17:00,57.9,54.0,30.27,SSW,202,4.9,5.0,85,0.00,,,0.01,Rainwise IP-100,2013-11-12 22:17:00,
2013-11-12 14:22:00,57.6,53.0,30.28,SSW,202,2.1,5.0,85,0.00,,,0.01,Rainwise IP-100,2013-11-12 22:22:00,
2013-11-12 14:27:00,57.5,53.0,30.28,SSW,202,1.4,4.0,86,0.00,,,0.01,Rainwise IP-100,2013-11-12 22:27:00,
2013-11-12 14:32:00,57.5,53.0,30.28,SSW,202,1.2,5.0,86,0.00,,,0.01,Rainwise IP-100,2013-11-12 22:32:00,
2013-11-12 14:37:00,57.8,53.0,30.28,SSW,202,0.0,4.0,86,0.00,,,0.01,Rainwise IP-100,2013-11-12 22:37:00,
2013-11-12 14:42:00,58.1,54.0,30.28,South,180,1.6,5.0,86,0.00,,,0.01,Rainwise IP-100,2013-11-12 22:42:00,
2013-11-12 14:47:00,58.1,54.0,30.28,SSW,202,1.2,4.0,85,0.00,,,0.01,Rainwise IP-100,2013-11-12 22:47:00,
2013-11-12 14:52:00,58.0,54.0,30.28,SSW,202,1.2,4.0,85,0.00,,,0.01,Rainwise IP-100,2013-11-12 22:52:00,
2013-11-12 14:57:00,57.8,53.0,30.29,SW,225,0.0,3.0,85,0.00,,,0.01,Rainwise IP-100,2013-11-12 22:57:00,
2013-11-12 15:02:00,57.7,53.0,30.28,WSW,247,1.6,3.0,85,0.00,,,0.01,Rainwise IP-100,2013-11-12 23:02:00,
2013-11-12 15:07:00,57.6,53.0,30.29,SW,225,1.4,3.0,86,0.00,,,0.01,Rainwise IP-100,2013-11-12 23:07:00,
2013-11-12 15:12:00,57.6,53.0,30.29,SW,225,2.1,3.0,86,0.00,,,0.01,Rainwise IP-100,2013-11-12 23:12:00,
2013-11-12 15:17:00,57.8,53.0,30.29,SSW,202,0.0,3.0,86,0.00,,,0.01,Rainwise IP-100,2013-11-12 23:17:00,
2013-11-12 15:22:00,58.0,54.0,30.29,SSW,202,2.6,3.0,85,0.00,,,0.01,Rainwise IP-100,2013-11-12 23:22:00,
2013-11-12 15:27:00,58.2,54.0,30.29,SW,225,2.1,3.0,85,0.00,,,0.01,Rainwise IP-100,2013-11-12 23:27:00,
2013-11-12 15:32:00,58.3,54.0,30.29,SW,225,0.0,5.0,85,0.00,,,0.01,Rainwise IP-100,2013-11-12 23:32:00,
2013-11-12 15:37:00,58.3,53.0,30.29,SSW,202,2.8,4.0,84,0.00,,,0.01,Rainwise IP-100,2013-11-12 23:37:00,
2013-11-12 15:42:00,58.4,53.0,30.29,SW,225,1.9,5.0,84,0.00,,,0.01,Rainwise IP-100,2013-11-12 23:42:00,
2013-11-12 15:47:00,58.5,54.0,30.29,SSW,202,2.8,6.0,84,0.00,,,0.01,Rainwise IP-100,2013-11-12 23:47:00,
2013-11-12 15:52:00,58.5,54.0,30.29,SSW,202,0.0,4.0,84,0.00,,,0.01,Rainwise IP-100,2013-11-12 23:52:00,
2013-11-12 15:57:00,58.3,53.0,30.29,SSW,202,1.2,4.0,84,0.00,,,0.01,Rainwise IP-100,2013-11-12 23:57:00,
2013-11-12 16:02:00,58.2,53.0,30.29,SW,225,1.2,3.0,84,0.00,,,0.01,Rainwise IP-100,2013-11-13 00:02:00,
2013-11-12 16:07:00,58.1,53.0,30.29,SSW,202,2.3,2.3,84,0.00,,,0.01,Rainwise IP-100,2013-11-13 00:07:00,
2013-11-12 16:12:00,57.9,53.0,30.29,SSW,202,1.2,3.0,84,0.00,,,0.01,Rainwise IP-100,2013-11-13 00:12:00,
2013-11-12 16:17:00,57.8,53.0,30.29,SSE,157,0.0,6.0,84,0.00,,,0.01,Rainwise IP-100,2013-11-13 00:17:00,
2013-11-12 16:22:00,57.7,53.0,30.29,SSW,202,1.6,4.0,84,0.00,,,0.01,Rainwise IP-100,2013-11-13 00:22:00,
2013-11-12 16:27:00,57.6,53.0,30.29,SW,225,2.3,2.3,85,0.00,,,0.01,Rainwise IP-100,2013-11-13 00:27:00,
2013-11-12 16:32:00,57.4,53.0,30.29,SSW,202,0.0,3.0,85,0.00,,,0.01,Rainwise IP-100,2013-11-13 00:32:00,
2013-11-12 16:37:00,57.3,53.0,30.29,SSW,202,2.1,3.0,85,0.00,,,0.01,Rainwise IP-100,2013-11-13 00:37:00,
2013-11-12 16:42:00,57.2,53.0,30.29,SW,225,0.0,4.0,86,0.00,,,0.01,Rainwise IP-100,2013-11-13 00:42:00,
2013-11-12 16:47:00,57.2,53.0,30.30,SW,225,1.6,3.0,86,0.00,,,0.01,Rainwise IP-100,2013-11-13 00:47:00,
2013-11-12 16:52:00,57.1,53.0,30.30,SSW,202,0.0,2.0,86,0.00,,,0.01,Rainwise IP-100,2013-11-13 00:52:00,
2013-11-12 16:57:00,57.0,53.0,30.30,SW,225,0.0,2.0,86,0.00,,,0.01,Rainwise IP-100,2013-11-13 00:57:00,
2013-11-12 17:02:00,56.9,53.0,30.30,SSW,202,0.0,3.0,86,0.00,,,0.01,Rainwise IP-100,2013-11-13 01:02:00,
2013-11-12 17:07:00,56.8,53.0,30.30,SSW,202,1.2,3.0,87,0.00,,,0.01,Rainwise IP-100,2013-11-13 01:07:00,
2013-11-12 17:12:00,56.8,53.0,30.31,SSW,202,0.0,3.0,87,0.00,,,0.01,Rainwise IP-100,2013-11-13 01:12:00,
2013-11-12 17:17:00,56.7,53.0,30.30,SSW,202,0.0,2.0,87,0.00,,,0.01,Rainwise IP-100,2013-11-13 01:17:00,
2013-11-12 17:22:00,56.7,53.0,30.30,SSW,202,1.6,2.0,87,0.00,,,0.01,Rainwise IP-100,2013-11-13 01:22:00,
2013-11-12 17:27:00,56.6,53.0,30.30,SSW,202,1.6,3.0,87,0.00,,,0.01,Rainwise IP-100,2013-11-13 01:27:00,
2013-11-12 17:32:00,56.6,53.0,30.30,SSW,202,1.6,3.0,87,0.00,,,0.01,Rainwise IP-100,2013-11-13 01:32:00,
2013-11-12 17:37:00,56.6,53.0,30.31,SSW,202,4.2,5.0,87,0.00,,,0.01,Rainwise IP-100,2013-11-13 01:37:00,
2013-11-12 17:42:00,56.5,53.0,30.31,SSW,202,0.0,5.0,87,0.00,,,0.01,Rainwise IP-100,2013-11-13 01:42:00,
2013-11-12 17:47:00,56.5,53.0,30.31,SSW,202,0.0,4.0,87,0.00,,,0.01,Rainwise IP-100,2013-11-13 01:47:00,
2013-11-12 17:52:00,56.4,53.0,30.31,SW,225,2.3,2.3,87,0.00,,,0.01,Rainwise IP-100,2013-11-13 01:52:00,
2013-11-12 17:57:00,56.4,53.0,30.31,SSW,202,1.2,4.0,87,0.00,,,0.01,Rainwise IP-100,2013-11-13 01:57:00,
2013-11-12 18:02:00,56.4,53.0,30.31,South,180,1.9,3.0,87,0.00,,,0.01,Rainwise IP-100,2013-11-13 02:02:00,
2013-11-12 18:07:00,56.3,52.0,30.32,SSW,202,2.8,3.0,87,0.00,,,0.01,Rainwise IP-100,2013-11-13 02:07:00,
2013-11-12 18:12:00,56.3,53.0,30.31,SSW,202,1.2,3.0,88,0.00,,,0.01,Rainwise IP-100,2013-11-13 02:12:00,
2013-11-12 18:17:00,56.3,53.0,30.32,SW,225,1.6,4.0,88,0.00,,,0.01,Rainwise IP-100,2013-11-13 02:17:00,
2013-11-12 18:22:00,56.2,53.0,30.31,SW,225,1.4,4.0,88,0.00,,,0.01,Rainwise IP-100,2013-11-13 02:22:00,
2013-11-12 18:27:00,56.1,53.0,30.32,SSW,202,1.6,4.0,88,0.00,,,0.01,Rainwise IP-100,2013-11-13 02:27:00,
2013-11-12 18:32:00,56.1,53.0,30.32,SE,135,0.0,4.0,88,0.00,,,0.01,Rainwise IP-100,2013-11-13 02:32:00,
2013-11-12 18:37:00,56.0,53.0,30.32,SSW,202,2.3,2.3,89,0.00,,,0.01,Rainwise IP-100,2013-11-13 02:37:00,
2013-11-12 18:42:00,55.9,53.0,30.32,SSW,202,0.0,4.0,89,0.00,,,0.01,Rainwise IP-100,2013-11-13 02:42:00,
2013-11-12 18:47:00,55.8,53.0,30.32,SSW,202,2.3,3.0,89,0.00,,,0.01,Rainwise IP-100,2013-11-13 02:47:00,
2013-11-12 18:52:00,55.7,53.0,30.32,SSW,202,0.0,4.0,90,0.00,,,0.01,Rainwise IP-100,2013-11-13 02:52:00,
2013-11-12 18:57:00,55.7,53.0,30.32,SSW,202,1.4,4.0,90,0.00,,,0.01,Rainwise IP-100,2013-11-13 02:57:00,
2013-11-12 19:02:00,55.6,53.0,30.32,SSW,202,2.3,4.0,90,0.00,,,0.01,Rainwise IP-100,2013-11-13 03:02:00,
2013-11-12 19:07:00,55.6,53.0,30.32,SSW,202,0.0,5.0,90,0.00,,,0.01,Rainwise IP-100,2013-11-13 03:07:00,
2013-11-12 19:12:00,55.5,53.0,30.32,South,180,0.0,4.0,90,0.00,,,0.01,Rainwise IP-100,2013-11-13 03:12:00,
2013-11-12 19:17:00,55.4,53.0,30.32,SSW,202,0.0,3.0,90,0.00,,,0.01,Rainwise IP-100,2013-11-13 03:17:00,
2013-11-12 19:22:00,55.3,53.0,30.32,SW,225,0.0,4.0,90,0.00,,,0.01,Rainwise IP-100,2013-11-13 03:22:00,
2013-11-12 19:27:00,55.2,53.0,30.33,SSW,202,0.0,5.0,91,0.00,,,0.01,Rainwise IP-100,2013-11-13 03:27:00,
2013-11-12 19:32:00,55.1,53.0,30.33,SW,225,0.0,4.0,91,0.00,,,0.01,Rainwise IP-100,2013-11-13 03:32:00,
2013-11-12 19:37:00,55.0,53.0,30.33,SSW,202,0.0,3.0,91,0.00,,,0.01,Rainwise IP-100,2013-11-13 03:37:00,
2013-11-12 19:42:00,54.8,52.0,30.32,SW,225,0.0,3.0,91,0.00,,,0.01,Rainwise IP-100,2013-11-13 03:42:00,
2013-11-12 19:47:00,54.6,53.0,30.32,SSW,202,1.9,3.0,92,0.00,,,0.01,Rainwise IP-100,2013-11-13 03:47:00,
2013-11-12 19:52:00,54.5,53.0,30.32,SSW,202,0.0,4.0,92,0.00,,,0.01,Rainwise IP-100,2013-11-13 03:52:00,
2013-11-12 19:57:00,54.4,53.0,30.33,SSW,202,0.0,2.0,92,0.00,,,0.01,Rainwise IP-100,2013-11-13 03:57:00,
2013-11-12 20:02:00,54.3,52.0,30.34,SSW,202,0.0,4.0,93,0.00,,,0.01,Rainwise IP-100,2013-11-13 04:02:00,
2013-11-12 20:07:00,54.2,52.0,30.34,SSW,202,0.0,3.0,93,0.00,,,0.01,Rainwise IP-100,2013-11-13 04:07:00,
2013-11-12 20:12:00,54.1,52.0,30.34,SW,225,0.0,2.0,93,0.00,,,0.01,Rainwise IP-100,2013-11-13 04:12:00,
2013-11-12 20:17:00,54.1,52.0,30.34,SSW,202,0.0,2.0,93,0.00,,,0.01,Rainwise IP-100,2013-11-13 04:17:00,
2013-11-12 20:22:00,54.1,52.0,30.34,SSW,202,0.0,3.0,93,0.00,,,0.01,Rainwise IP-100,2013-11-13 04:22:00,
2013-11-12 20:27:00,54.0,52.0,30.34,SW,225,1.2,2.0,93,0.00,,,0.01,Rainwise IP-100,2013-11-13 04:27:00,
2013-11-12 20:32:00,53.9,52.0,30.34,SW,225,1.6,2.0,93,0.00,,,0.01,Rainwise IP-100,2013-11-13 04:32:00,
2013-11-12 20:37:00,53.7,51.0,30.34,SSW,202,0.0,1.0,93,0.00,,,0.01,Rainwise IP-100,2013-11-13 04:37:00,
2013-11-12 20:42:00,53.6,51.0,30.34,SSW,202,1.2,2.0,93,0.00,,,0.01,Rainwise IP-100,2013-11-13 04:42:00,
2013-11-12 20:47:00,53.7,51.0,30.34,SSW,202,1.9,3.0,93,0.00,,,0.01,Rainwise IP-100,2013-11-13 04:47:00,
2013-11-12 20:52:00,53.8,51.0,30.35,SW,225,0.0,4.0,93,0.00,,,0.01,Rainwise IP-100,2013-11-13 04:52:00,
2013-11-12 20:57:00,53.9,52.0,30.34,SSW,202,0.0,2.0,93,0.00,,,0.01,Rainwise IP-100,2013-11-13 04:57:00,
2013-11-12 21:01:00,54.0,52.0,30.34,SSW,202,0.0,4.0,93,0.00,,,0.01,Rainwise IP-100,2013-11-13 05:01:00,
2013-11-12 21:06:00,54.0,52.0,30.34,SSW,202,0.0,1.0,93,0.00,,,0.01,Rainwise IP-100,2013-11-13 05:06:00,
2013-11-12 21:11:00,53.9,52.0,30.34,SSW,202,0.0,2.0,93,0.00,,,0.01,Rainwise IP-100,2013-11-13 05:11:00,
2013-11-12 21:16:00,53.8,51.0,30.35,SSW,202,1.2,5.0,93,0.00,,,0.01,Rainwise IP-100,2013-11-13 05:16:00,
2013-11-12 21:21:00,53.8,51.0,30.35,SW,225,2.3,3.0,93,0.00,,,0.01,Rainwise IP-100,2013-11-13 05:21:00,
2013-11-12 21:26:00,53.8,51.0,30.34,South,180,0.0,7.0,93,0.00,,,0.01,Rainwise IP-100,2013-11-13 05:26:00,
2013-11-12 21:31:00,53.8,51.0,30.35,SSW,202,0.0,4.0,93,0.00,,,0.01,Rainwise IP-100,2013-11-13 05:31:00,
2013-11-12 21:36:00,53.8,51.0,30.35,SW,225,2.1,4.0,93,0.00,,,0.01,Rainwise IP-100,2013-11-13 05:36:00,
2013-11-12 21:41:00,53.7,51.0,30.35,South,180,2.1,4.0,93,0.00,,,0.01,Rainwise IP-100,2013-11-13 05:41:00,
2013-11-12 21:46:00,53.6,52.0,30.35,SW,225,2.1,7.0,94,0.00,,,0.01,Rainwise IP-100,2013-11-13 05:46:00,
2013-11-12 21:51:00,53.7,51.0,30.35,South,180,1.6,6.0,93,0.00,,,0.01,Rainwise IP-100,2013-11-13 05:51:00,
2013-11-12 21:56:00,53.8,51.0,30.35,SSW,202,2.6,6.0,93,0.00,,,0.01,Rainwise IP-100,2013-11-13 05:56:00,
2013-11-12 22:01:00,53.7,51.0,30.35,SSW,202,3.0,5.0,93,0.00,,,0.01,Rainwise IP-100,2013-11-13 06:01:00,
2013-11-12 22:06:00,53.7,51.0,30.35,SSW,202,2.1,5.0,93,0.00,,,0.01,Rainwise IP-100,2013-11-13 06:06:00,
2013-11-12 22:11:00,53.6,51.0,30.36,WSW,247,0.0,3.0,93,0.00,,,0.01,Rainwise IP-100,2013-11-13 06:11:00,
2013-11-12 22:16:00,53.5,51.0,30.36,SW,225,0.0,4.0,93,0.00,,,0.01,Rainwise IP-100,2013-11-13 06:16:00,
2013-11-12 22:21:00,53.4,52.0,30.36,SSW,202,1.6,4.0,94,0.00,,,0.01,Rainwise IP-100,2013-11-13 06:21:00,
2013-11-12 22:26:00,53.4,52.0,30.36,SSW,202,2.6,5.0,94,0.00,,,0.01,Rainwise IP-100,2013-11-13 06:26:00,
2013-11-12 22:31:00,53.5,51.0,30.36,SSW,202,2.1,4.0,93,0.00,,,0.01,Rainwise IP-100,2013-11-13 06:31:00,
2013-11-12 22:36:00,53.5,51.0,30.36,South,180,1.2,4.0,93,0.00,,,0.01,Rainwise IP-100,2013-11-13 06:36:00,
2013-11-12 22:41:00,53.5,51.0,30.36,SSW,202,2.3,3.0,93,0.00,,,0.01,Rainwise IP-100,2013-11-13 06:41:00,
2013-11-12 22:46:00,53.5,51.0,30.36,South,180,1.4,5.0,93,0.00,,,0.01,Rainwise IP-100,2013-11-13 06:46:00,
2013-11-12 22:51:00,53.6,51.0,30.36,SW,225,3.3,6.0,93,0.00,,,0.01,Rainwise IP-100,2013-11-13 06:51:00,
2013-11-12 22:56:00,53.7,51.0,30.36,SSW,202,3.3,6.0,93,0.00,,,0.01,Rainwise IP-100,2013-11-13 06:56:00,
2013-11-12 23:01:00,53.6,51.0,30.36,SSW,202,3.3,4.0,93,0.00,,,0.01,Rainwise IP-100,2013-11-13 07:01:00,
2013-11-12 23:06:00,53.6,51.0,30.36,SSW,202,1.2,5.0,93,0.00,,,0.01,Rainwise IP-100,2013-11-13 07:06:00,
2013-11-12 23:11:00,53.6,51.0,30.36,SSW,202,0.0,4.0,93,0.00,,,0.01,Rainwise IP-100,2013-11-13 07:11:00,
2013-11-12 23:16:00,53.5,51.0,30.36,SSW,202,1.9,7.0,93,0.00,,,0.01,Rainwise IP-100,2013-11-13 07:16:00,
2013-11-12 23:21:00,53.5,51.0,30.36,SSW,202,3.7,7.0,92,0.00,,,0.01,Rainwise IP-100,2013-11-13 07:21:00,
2013-11-12 23:26:00,53.6,51.0,30.36,SSW,202,4.2,6.0,92,0.00,,,0.01,Rainwise IP-100,2013-11-13 07:26:00,
2013-11-12 23:31:00,53.5,51.0,30.36,South,180,1.4,5.0,92,0.00,,,0.01,Rainwise IP-100,2013-11-13 07:31:00,
2013-11-12 23:36:00,53.5,51.0,30.36,SSW,202,0.0,6.0,92,0.00,,,0.01,Rainwise IP-100,2013-11-13 07:36:00,
2013-11-12 23:41:00,53.4,51.0,30.36,SSW,202,2.1,6.0,92,0.00,,,0.01,Rainwise IP-100,2013-11-13 07:41:00,
2013-11-12 23:46:00,53.4,51.0,30.36,SSW,202,5.4,7.0,92,0.00,,,0.01,Rainwise IP-100,2013-11-13 07:46:00,
2013-11-12 23:51:00,53.4,51.0,30.36,South,180,5.1,8.0,92,0.00,,,0.01,Rainwise IP-100,2013-11-13 07:51:00,
2013-11-12 23:56:00,53.5,51.0,30.36,SW,225,3.3,6.0,92,0.00,,,0.01,Rainwise IP-100,2013-11-13 07:56:00,